Storm Lake, IA

3:08 AM CDT on June 26, 2017 (GMT -0500)
Storm Lake Municipal

Weather History for KSLB - April, 2013

Change the Weather History Date:

Sunday, April 28, 2013

  Actual Average Record
Temperature  
Mean Temperature 62 °F -  
Max Temperature 80 °F 63 °F 86 °F (2001)
Min Temperature 44 °F 43 °F 28 °F (2008)
Degree Days  
Heating Degree Days 3    
Growing Degree Days 12 (Base 50)    
Moisture  
Dew Point 45 °F    
Average Humidity 59    
Maximum Humidity 100    
Minimum Humidity 26    
Precipitation  
Precipitation 0.00 in - - ()
Sea Level Pressure  
Sea Level Pressure 29.80 in    
Wind  
Wind Speed 14 mph (SSW)    
Max Wind Speed 26 mph    
Max Gust Speed 33 mph    
Visibility 10 miles    
Events      
Averages and records for this station are not official NWS values.
T = Trace of Precipitation, MM = Missing Value Source: NWS Daily Summary

Daily Weather History Graph

Daily Weather History Graph

Search for Another Location

Airport or City:

Trip Planner

Search our weather history database for the weather conditions in past years. The results will help you decide how hot, cold, wet, or windy it might be!

Date:

Astronomy

Apr. 28, 2013 Rise Set
Actual Time 6:19 AM CDT 8:18 PM CDT
Civil Twilight 5:48 AM CDT 8:48 PM CDT
Nautical Twilight 5:11 AM CDT 9:26 PM CDT
Astronomical Twilight 4:31 AM CDT 10:06 PM CDT
Moon 11:51 PM CDT (4/28) 8:34 AM CDT (4/28)
Length of Visible Light 14h 59m
Length of Day
13h 58m
Waning Gibbous, 88% of the Moon is Illuminated
Apr 28
Waning Gibbous
May 2
Last Quarter
May 9
New
May 17
First Quarter
May 24
Full

Hourly Weather History & Observations

Time (CDT) Temp. Windchill Dew Point Humidity Pressure Visibility Wind Dir Wind Speed Gust Speed Precip Events Conditions
12:15 AM 50.0 °F - 44.6 °F 82% 29.93 in 10.0 mi SSE 9.2 mph - N/A   Clear
12:35 AM 50.0 °F - 44.6 °F 82% 29.93 in 10.0 mi SSE 10.4 mph - N/A   Clear
12:55 AM 50.0 °F - 44.6 °F 82% 29.93 in 10.0 mi SSE 11.5 mph - N/A   Clear
1:15 AM 50.0 °F - 44.6 °F 82% 29.93 in 10.0 mi SSE 11.5 mph - N/A   Clear
1:35 AM 48.2 °F - 44.6 °F 87% 29.93 in 10.0 mi SSE 10.4 mph - N/A   Clear
1:55 AM 46.4 °F 41.1 °F 44.6 °F 93% 29.93 in 10.0 mi South 11.5 mph - N/A   Clear
2:15 AM 46.4 °F 41.1 °F 44.6 °F 93% 29.93 in 10.0 mi South 11.5 mph - N/A   Clear
2:35 AM 46.4 °F 41.1 °F 42.8 °F 87% 29.92 in 10.0 mi South 11.5 mph - N/A   Clear
2:55 AM 46.4 °F 41.1 °F 42.8 °F 87% 29.91 in 10.0 mi South 11.5 mph - N/A   Clear
3:15 AM 44.6 °F 38.8 °F 42.8 °F 93% 29.90 in 9.0 mi South 11.5 mph - N/A   Clear
3:35 AM 44.6 °F 38.8 °F 42.8 °F 93% 29.90 in 10.0 mi South 11.5 mph - N/A   Clear
3:55 AM 44.6 °F 39.2 °F 42.8 °F 93% 29.90 in 10.0 mi South 10.4 mph - N/A   Clear
4:15 AM 44.6 °F 38.8 °F 42.8 °F 93% 29.89 in 9.0 mi SSE 11.5 mph - N/A   Clear
4:35 AM 44.6 °F 39.2 °F 42.8 °F 93% 29.89 in 10.0 mi South 10.4 mph - N/A   Clear
4:55 AM 44.6 °F 38.4 °F 42.8 °F 93% 29.89 in 9.0 mi South 12.7 mph - N/A   Clear
5:15 AM 44.6 °F 38.8 °F 44.6 °F 100% 29.88 in 9.0 mi South 11.5 mph - N/A   Clear
5:35 AM 44.6 °F 38.4 °F 44.6 °F 100% 29.87 in 9.0 mi South 12.7 mph - N/A   Clear
5:55 AM 44.6 °F 38.4 °F 44.6 °F 100% 29.88 in 8.0 mi South 12.7 mph - N/A   Clear
6:15 AM 46.4 °F 40.4 °F 44.6 °F 93% 29.87 in 8.0 mi South 13.8 mph - N/A   Clear
6:35 AM 46.4 °F 40.1 °F 44.6 °F 93% 29.86 in 7.0 mi South 15.0 mph - N/A   Clear
6:55 AM 46.4 °F 40.4 °F 44.6 °F 93% 29.87 in 7.0 mi South 13.8 mph - N/A   Clear
7:15 AM 46.4 °F 40.7 °F 46.4 °F 100% 29.86 in 6.0 mi South 12.7 mph - N/A   Clear
7:35 AM 48.2 °F - 46.4 °F 93% 29.87 in 6.0 mi South 10.4 mph - N/A   Clear
8:15 AM 51.8 °F - 48.2 °F 88% 29.85 in 8.0 mi South 12.7 mph - N/A   Clear
8:35 AM 53.6 °F - 50.0 °F 88% 29.84 in 9.0 mi SSW 15.0 mph - N/A   Clear
8:55 AM 55.4 °F - 50.0 °F 82% 29.84 in 10.0 mi SSW 15.0 mph 21.9 mph N/A   Clear
9:15 AM 59.0 °F - 50.0 °F 72% 29.84 in 10.0 mi SSW 18.4 mph - N/A   Clear
9:35 AM 60.8 °F - 50.0 °F 68% 29.83 in 10.0 mi SSW 15.0 mph - N/A   Clear
9:55 AM 62.6 °F - 48.2 °F 59% 29.83 in 10.0 mi SW 17.3 mph 25.3 mph N/A   Clear
10:15 AM 64.4 °F - 48.2 °F 56% 29.82 in 10.0 mi SW 17.3 mph 25.3 mph N/A   Clear
10:35 AM 66.2 °F - 48.2 °F 52% 29.82 in 10.0 mi SSW 17.3 mph 24.2 mph N/A   Clear
10:55 AM 68.0 °F - 46.4 °F 46% 29.82 in 10.0 mi SSW 19.6 mph 27.6 mph N/A   Clear
11:15 AM 69.8 °F - 46.4 °F 43% 29.81 in 10.0 mi SSW 20.7 mph 27.6 mph N/A   Clear
11:35 AM 69.8 °F - 44.6 °F 40% 29.80 in 10.0 mi SSW 23.0 mph 29.9 mph N/A   Clear
11:55 AM 71.6 °F - 46.4 °F 41% 29.80 in 10.0 mi SSW 21.9 mph 28.8 mph N/A   Clear
12:15 PM 71.6 °F - 46.4 °F 41% 29.79 in 10.0 mi SSW 21.9 mph 27.6 mph N/A   Clear
12:35 PM 73.4 °F - 44.6 °F 36% 29.78 in 10.0 mi SSW 24.2 mph 31.1 mph N/A   Clear
12:55 PM 75.2 °F - 42.8 °F 31% 29.77 in 10.0 mi SW 26.5 mph 33.4 mph N/A   Clear
1:15 PM 75.2 °F - 44.6 °F 34% 29.76 in 10.0 mi SSW 20.7 mph 31.1 mph N/A   Clear
1:35 PM 75.2 °F - 44.6 °F 34% 29.76 in 10.0 mi SSW 25.3 mph 32.2 mph N/A   Clear
1:55 PM 77.0 °F - 42.8 °F 29% 29.75 in 10.0 mi South 23.0 mph - N/A   Clear
2:15 PM 77.0 °F - 42.8 °F 29% 29.75 in 10.0 mi SW 21.9 mph - N/A   Clear
2:35 PM 78.8 °F - 41.0 °F 26% 29.74 in 10.0 mi SSW 23.0 mph 28.8 mph N/A   Clear
2:55 PM 78.8 °F - 41.0 °F 26% 29.74 in 10.0 mi SW 16.1 mph 28.8 mph N/A   Clear
3:15 PM 78.8 °F - 42.8 °F 28% 29.73 in 10.0 mi SSW 21.9 mph 27.6 mph N/A   Clear
3:35 PM 78.8 °F - 42.8 °F 28% 29.73 in 10.0 mi SSW 17.3 mph 25.3 mph N/A   Clear
3:55 PM 78.8 °F - 42.8 °F 28% 29.72 in 10.0 mi SSW 17.3 mph 24.2 mph N/A   Clear
4:15 PM 80.6 °F - 44.6 °F 28% 29.71 in 10.0 mi SW 15.0 mph 24.2 mph N/A   Clear
4:35 PM 78.8 °F - 44.6 °F 30% 29.70 in 9.0 mi SSW 18.4 mph 25.3 mph N/A   Clear
4:55 PM 78.8 °F - 44.6 °F 30% 29.70 in 10.0 mi SSW 18.4 mph 25.3 mph N/A   Clear
5:15 PM 78.8 °F - 44.6 °F 30% 29.69 in 10.0 mi SSW 17.3 mph 24.2 mph N/A   Clear
5:35 PM 78.8 °F - 42.8 °F 28% 29.69 in 10.0 mi SSW 19.6 mph - N/A   Clear
5:55 PM 80.6 °F - 42.8 °F 26% 29.69 in 10.0 mi South 16.1 mph - N/A   Clear
6:15 PM 78.8 °F - 42.8 °F 28% 29.69 in 10.0 mi SSW 17.3 mph - N/A   Clear
6:35 PM 78.8 °F - 42.8 °F 28% 29.68 in 10.0 mi SSW 17.3 mph - N/A   Clear
6:55 PM 78.8 °F - 42.8 °F 28% 29.68 in 10.0 mi SSW 15.0 mph 21.9 mph N/A   Clear
7:15 PM 77.0 °F - 42.8 °F 29% 29.68 in 10.0 mi SSW 12.7 mph - N/A   Clear
7:35 PM 73.4 °F - 44.6 °F 36% 29.68 in 10.0 mi South 12.7 mph - N/A   Clear
7:55 PM 71.6 °F - 44.6 °F 38% 29.68 in 10.0 mi South 11.5 mph - N/A   Clear
8:15 PM 69.8 °F - 44.6 °F 40% 29.69 in 10.0 mi South 12.7 mph - N/A   Clear
8:35 PM 68.0 °F - 44.6 °F 43% 29.69 in 10.0 mi SSW 11.5 mph - N/A   Clear
8:55 PM 68.0 °F - 44.6 °F 43% 29.70 in 10.0 mi South 11.5 mph - N/A   Clear
9:15 PM 66.2 °F - 46.4 °F 49% 29.70 in 10.0 mi South 12.7 mph - N/A   Clear
9:35 PM 66.2 °F - 46.4 °F 49% 29.71 in 10.0 mi South 10.4 mph - N/A   Clear
9:55 PM 64.4 °F - 48.2 °F 56% 29.74 in 10.0 mi Calm Calm 15.0 mph N/A   Clear
10:15 PM 69.8 °F - 46.4 °F 43% 29.75 in 10.0 mi SSW 5.8 mph - N/A   Clear
10:35 PM 66.2 °F - 48.2 °F 52% 29.76 in - North 11.5 mph - N/A   Mostly Cloudy
10:55 PM 62.6 °F - 48.2 °F 59% 29.76 in 10.0 mi North 8.1 mph - N/A   Mostly Cloudy
11:15 PM 60.8 °F - 48.2 °F 63% 29.76 in 10.0 mi NNE 9.2 mph - N/A   Partly Cloudy
11:35 PM 60.8 °F - 48.2 °F 63% 29.76 in 10.0 mi NE 12.7 mph - N/A   Clear
11:55 PM 59.0 °F - 48.2 °F 67% 29.75 in 10.0 mi NE 9.2 mph - N/A   Clear